| time (UTC) | temp F | wind direction | speed MPH | gust MPH | rain 1hr in | rain 24hr in | rain mn in | humidity % | barometer mb |
| 20260505124503 | 59 | 318 | 0.0 | 9.0 | 0.00 | 0.00 | 0.00 | 66 | 1013.0 |
| 20260505123624 | 59 | 353 | 0.0 | 2.0 | 0.00 | 0.00 | 0.00 | 66 | 1013.0 |
| 20260505122703 | 58 | 348 | 0.0 | 5.0 | 0.00 | 0.00 | 0.00 | 67 | 1012.9 |
| 20260505121803 | 58 | 324 | 0.0 | 5.0 | 0.00 | 0.00 | 0.00 | 67 | 1012.8 |
| 20260505120903 | 58 | 15 | 0.0 | 3.0 | 0.00 | 0.00 | 0.00 | 68 | 1012.9 |
| 20260505120004 | 56 | 329 | 0.0 | 3.0 | 0.00 | 0.00 | 0.00 | 70 | 1012.8 |
| 20260505115424 | 56 | 339 | 0.0 | 3.0 | 0.00 | 0.00 | 0.00 | 70 | 1012.7 |
| 20260505114503 | 58 | 342 | 0.0 | 9.0 | 0.00 | 0.00 | 0.00 | 69 | 1012.9 |
| 20260505113603 | 57 | 344 | 0.0 | 7.0 | 0.00 | 0.00 | 0.00 | 69 | 1012.7 |
| 20260505112703 | 58 | 346 | 0.0 | 7.0 | 0.00 | 0.00 | 0.00 | 69 | 1013.0 |
| 20260505111803 | 58 | 60 | 0.0 | 5.0 | 0.00 | 0.00 | 0.00 | 67 | 1013.0 |
| 20260505110903 | 57 | 348 | 1.0 | 10.0 | 0.00 | 0.00 | 0.00 | 70 | 1012.7 |
| 20260505101803 | 59 | 317 | 3.0 | 12.0 | 0.00 | 0.00 | 0.00 | 69 | 1012.9 |
| 20260505100903 | 61 | 318 | 3.0 | 12.0 | 0.00 | 0.00 | 0.00 | 65 | 1012.7 |
| 20260505100024 | 60 | 354 | 4.0 | 14.0 | 0.00 | 0.00 | 0.00 | 67 | 1012.5 |
| 20260505095403 | 59 | 351 | 4.0 | 10.0 | 0.00 | 0.00 | 0.00 | 68 | 1012.7 |
| 20260505094503 | 58 | 346 | 3.0 | 10.0 | 0.00 | 0.00 | 0.00 | 69 | 1012.7 |
| 20260505093603 | 58 | 321 | 3.0 | 9.0 | 0.00 | 0.00 | 0.00 | 70 | 1012.7 |
| 20260505092724 | 58 | 322 | 3.0 | 14.0 | 0.00 | 0.00 | 0.00 | 71 | 1012.7 |
| 20260505091803 | 58 | 344 | 4.0 | 12.0 | 0.00 | 0.00 | 0.00 | 70 | 1012.7 |
| 20260505090903 | 59 | 330 | 3.0 | 12.0 | 0.00 | 0.00 | 0.00 | 70 | 1012.6 |
| 20260505090003 | 58 | 338 | 3.0 | 9.0 | 0.00 | 0.00 | 0.00 | 71 | 1012.7 |
| 20260505085403 | 56 | 336 | 4.0 | 15.0 | 0.00 | 0.00 | 0.00 | 73 | 1013.0 |
| 20260505084503 | 56 | 334 | 3.0 | 10.0 | 0.00 | 0.00 | 0.00 | 74 | 1012.9 |
| 20260505083603 | 56 | 330 | 2.0 | 7.0 | 0.00 | 0.00 | 0.00 | 75 | 1012.7 |
| 20260505082703 | 56 | 319 | 3.0 | 12.0 | 0.00 | 0.00 | 0.00 | 74 | 1012.8 |
| 20260505081803 | 56 | 339 | 3.0 | 10.0 | 0.00 | 0.00 | 0.00 | 74 | 1012.7 |
| 20260505080903 | 56 | 346 | 3.0 | 10.0 | 0.00 | 0.00 | 0.00 | 74 | 1012.7 |
| 20260505080003 | 56 | 345 | 4.0 | 14.0 | 0.00 | 0.00 | 0.00 | 75 | 1012.6 |
| 20260505075403 | 55 | 341 | 3.0 | 10.0 | 0.00 | 0.00 | 0.00 | 76 | 1012.7 |
| 20260505074503 | 56 | 326 | 3.0 | 12.0 | 0.00 | 0.00 | 0.00 | 77 | 1012.7 |
| 20260505073603 | 56 | 336 | 2.0 | 10.0 | 0.00 | 0.00 | 0.00 | 76 | 1012.5 |
| 20260505072703 | 57 | 327 | 1.0 | 6.0 | 0.00 | 0.00 | 0.00 | 73 | 1012.5 |
| 20260505071803 | 57 | 338 | 2.0 | 12.0 | 0.00 | 0.00 | 0.00 | 74 | 1012.5 |
| 20260505070924 | 55 | 340 | 1.0 | 5.0 | 0.00 | 0.00 | 0.00 | 78 | 1012.6 |
| 20260505070003 | 54 | 5 | 2.0 | 9.0 | 0.00 | 0.00 | 0.00 | 82 | 1012.6 |
| 20260505065403 | 54 | 346 | 2.0 | 7.0 | 0.00 | 0.00 | 0.00 | 84 | 1012.7 |
| 20260505064503 | 53 | 320 | 1.0 | 9.0 | 0.00 | 0.00 | 0.00 | 86 | 1012.9 |
| 20260505063603 | 52 | 321 | 0.0 | 2.0 | 0.00 | 0.00 | 0.00 | 89 | 1012.9 |
| 20260505062703 | 52 | 338 | 0.0 | 5.0 | 0.00 | 0.00 | 0.00 | 90 | 1012.9 |
| 20260505061803 | 51 | 334 | 1.0 | 7.0 | 0.00 | 0.00 | 0.00 | 91 | 1012.9 |
| 20260505060903 | 51 | 353 | 0.0 | 9.0 | 0.00 | 0.00 | 0.00 | 92 | 1012.9 |
| 20260505060003 | 51 | 2 | 0.0 | 9.0 | 0.00 | 0.00 | 0.00 | 93 | 1013.0 |
| 20260505055403 | 50 | 0 | 0.0 | 0.0 | 0.00 | 0.00 | 0.00 | 93 | 1013.0 |
| 20260505054524 | 50 | 0 | 0.0 | 0.0 | 0.00 | 0.00 | 0.00 | 94 | 1013.0 |
| 20260505053603 | 50 | 0 | 0.0 | 0.0 | 0.00 | 0.00 | 0.00 | 94 | 1013.0 |
| 20260505052724 | 50 | 0 | 0.0 | 0.0 | 0.00 | 0.00 | 0.00 | 94 | 1013.1 |
| 20260505051803 | 50 | 0 | 0.0 | 0.0 | 0.00 | 0.00 | 0.00 | 94 | 1012.9 |
| 20260505050903 | 49 | 0 | 0.0 | 0.0 | 0.00 | 0.00 | 0.00 | 94 | 1012.7 |
| 20260505040903 | 51 | 0 | 0.0 | 0.0 | 0.00 | 0.00 | 0.00 | 92 | 1012.9 |
| 20260505040004 | 51 | 0 | 0.0 | 0.0 | 0.00 | 0.00 | 0.00 | 93 | 1013.1 |
| 20260505035424 | 51 | 0 | 0.0 | 0.0 | 0.00 | 0.00 | 0.00 | 93 | 1013.0 |
| 20260505034524 | 51 | 0 | 0.0 | 0.0 | 0.00 | 0.00 | 0.00 | 93 | 1013.1 |
| 20260505033603 | 51 | 0 | 0.0 | 0.0 | 0.00 | 0.00 | 0.00 | 93 | 1013.1 |
| 20260505032703 | 51 | 0 | 0.0 | 0.0 | 0.00 | 0.00 | 0.00 | 93 | 1013.2 |
| 20260505031803 | 51 | 0 | 0.0 | 0.0 | 0.00 | 0.00 | 0.00 | 93 | 1013.3 |
| 20260505030903 | 51 | 0 | 0.0 | 0.0 | 0.00 | 0.00 | 0.00 | 93 | 1013.3 |
| 20260505030003 | 51 | 0 | 0.0 | 0.0 | 0.00 | 0.00 | 0.00 | 92 | 1013.1 |
| 20260505025403 | 51 | 0 | 0.0 | 0.0 | 0.00 | 0.00 | 0.00 | 92 | 1013.3 |
| 20260505024503 | 51 | 0 | 0.0 | 0.0 | 0.00 | 0.00 | 0.00 | 91 | 1013.2 |
| 20260505023624 | 51 | 0 | 0.0 | 0.0 | 0.00 | 0.00 | 0.00 | 91 | 1013.1 |
| 20260505022724 | 52 | 0 | 0.0 | 0.0 | 0.00 | 0.00 | 0.00 | 90 | 1013.0 |
| 20260505021803 | 52 | 0 | 0.0 | 0.0 | 0.00 | 0.00 | 0.00 | 90 | 1013.1 |
| 20260505020924 | 53 | 0 | 0.0 | 0.0 | 0.00 | 0.00 | 0.00 | 89 | 1013.1 |
| 20260505020004 | 53 | 0 | 0.0 | 0.0 | 0.00 | 0.00 | 0.00 | 89 | 1013.3 |
| 20260505015403 | 53 | 326 | 0.0 | 7.0 | 0.00 | 0.00 | 0.00 | 89 | 1013.4 |
| 20260505014524 | 53 | 288 | 0.0 | 7.0 | 0.00 | 0.00 | 0.00 | 89 | 1013.4 |
| 20260505013603 | 53 | 336 | 0.0 | 1.0 | 0.00 | 0.00 | 0.00 | 89 | 1013.5 |
| 20260505012724 | 53 | 8 | 0.0 | 5.0 | 0.00 | 0.00 | 0.00 | 89 | 1013.5 |
| 20260505011803 | 53 | 356 | 0.0 | 3.0 | 0.00 | 0.00 | 0.00 | 89 | 1013.8 |
| 20260505010903 | 53 | 335 | 0.0 | 3.0 | 0.00 | 0.00 | 0.00 | 89 | 1013.7 |
| 20260505010004 | 53 | 331 | 0.0 | 7.0 | 0.00 | 0.00 | 0.00 | 89 | 1013.6 |
| 20260505005424 | 53 | 0 | 0.0 | 0.0 | 0.00 | 0.00 | 0.00 | 90 | 1013.8 |
| 20260505004503 | 53 | 0 | 0.0 | 0.0 | 0.00 | 0.00 | 0.00 | 90 | 1013.7 |
| 20260505003624 | 53 | 341 | 0.0 | 3.0 | 0.00 | 0.00 | 0.00 | 90 | 1014.0 |
| 20260505002703 | 53 | 0 | 0.0 | 0.0 | 0.00 | 0.00 | 0.00 | 90 | 1013.9 |
| 20260505001803 | 53 | 0 | 0.0 | 0.0 | 0.00 | 0.00 | 0.00 | 90 | 1013.9 |
| 20260505000903 | 53 | 0 | 0.0 | 0.0 | 0.00 | 0.00 | 0.00 | 90 | 1014.0 |
| 20260505000003 | 53 | 0 | 0.0 | 0.0 | 0.00 | 0.00 | 0.00 | 90 | 1013.9 |
| 20260504235403 | 53 | 0 | 0.0 | 0.0 | 0.00 | 0.00 | 0.00 | 89 | 1013.9 |
| 20260504234524 | 54 | 327 | 0.0 | 1.0 | 0.00 | 0.00 | 0.00 | 89 | 1013.8 |
| 20260504233603 | 54 | 343 | 0.0 | 5.0 | 0.00 | 0.00 | 0.00 | 89 | 1013.8 |
| 20260504232703 | 54 | 347 | 1.0 | 7.0 | 0.00 | 0.00 | 0.00 | 89 | 1013.9 |
| 20260504231803 | 54 | 320 | 0.0 | 1.0 | 0.00 | 0.00 | 0.00 | 88 | 1013.9 |
| 20260504230903 | 54 | 3 | 0.0 | 7.0 | 0.00 | 0.00 | 0.00 | 89 | 1014.0 |
| 20260504230024 | 54 | 342 | 0.0 | 5.0 | 0.00 | 0.00 | 0.00 | 88 | 1014.0 |
| 20260504225403 | 55 | 42 | 0.0 | 2.0 | 0.00 | 0.00 | 0.00 | 88 | 1014.0 |
| 20260504224524 | 55 | 349 | 0.0 | 2.0 | 0.00 | 0.00 | 0.00 | 88 | 1014.1 |
| 20260504223624 | 55 | 352 | 0.0 | 5.0 | 0.00 | 0.00 | 0.00 | 87 | 1013.9 |
| 20260504222703 | 55 | 340 | 0.0 | 5.0 | 0.00 | 0.00 | 0.00 | 87 | 1014.2 |
| 20260504221803 | 55 | 0 | 0.0 | 0.0 | 0.00 | 0.00 | 0.00 | 87 | 1014.2 |
| 20260504220903 | 55 | 323 | 0.0 | 1.0 | 0.00 | 0.00 | 0.00 | 87 | 1014.1 |
| 20260504220003 | 55 | 342 | 0.0 | 5.0 | 0.00 | 0.00 | 0.00 | 87 | 1014.4 |
| 20260504215403 | 55 | 329 | 0.0 | 3.0 | 0.00 | 0.00 | 0.00 | 88 | 1014.1 |
| 20260504214503 | 55 | 342 | 0.0 | 3.0 | 0.00 | 0.00 | 0.00 | 88 | 1014.1 |
| 20260504213603 | 55 | 0 | 0.0 | 0.0 | 0.00 | 0.00 | 0.00 | 88 | 1014.4 |
| 20260504212703 | 55 | 0 | 0.0 | 0.0 | 0.00 | 0.00 | 0.00 | 89 | 1014.3 |
| 20260504211824 | 55 | 0 | 0.0 | 0.0 | 0.00 | 0.00 | 0.00 | 89 | 1014.3 |
| 20260504210903 | 55 | 0 | 0.0 | 0.0 | 0.00 | 0.00 | 0.00 | 90 | 1014.5 |
| 20260504210024 | 56 | 0 | 0.0 | 0.0 | 0.00 | 0.00 | 0.00 | 90 | 1014.1 |
| 20260504205424 | 56 | 0 | 0.0 | 0.0 | 0.00 | 0.00 | 0.00 | 90 | 1014.2 |
| 20260504204524 | 56 | 0 | 0.0 | 0.0 | 0.00 | 0.00 | 0.00 | 89 | 1014.1 |
| 20260504203624 | 56 | 0 | 0.0 | 0.0 | 0.00 | 0.00 | 0.00 | 89 | 1014.2 |
| 20260504202703 | 56 | 0 | 0.0 | 0.0 | 0.00 | 0.00 | 0.00 | 88 | 1014.3 |
| 20260504201803 | 56 | 0 | 0.0 | 0.0 | 0.00 | 0.00 | 0.00 | 88 | 1014.3 |
| 20260504200903 | 56 | 0 | 0.0 | 0.0 | 0.00 | 0.00 | 0.00 | 88 | 1014.2 |
| 20260504200003 | 56 | 0 | 0.0 | 0.0 | 0.00 | 0.00 | 0.00 | 88 | 1013.9 |
| 20260504195403 | 56 | 0 | 0.0 | 0.0 | 0.00 | 0.00 | 0.00 | 87 | 1014.0 |
| 20260504194503 | 57 | 0 | 0.0 | 0.0 | 0.00 | 0.00 | 0.00 | 87 | 1014.0 |
| 20260504193603 | 57 | 0 | 0.0 | 0.0 | 0.00 | 0.00 | 0.00 | 87 | 1013.8 |
| 20260504192703 | 57 | 0 | 0.0 | 0.0 | 0.00 | 0.00 | 0.00 | 87 | 1013.7 |
| 20260504191803 | 57 | 0 | 0.0 | 0.0 | 0.00 | 0.00 | 0.00 | 87 | 1013.9 |
| 20260504190903 | 57 | 0 | 0.0 | 0.0 | 0.00 | 0.00 | 0.00 | 88 | 1013.8 |
| 20260504190003 | 58 | 0 | 0.0 | 0.0 | 0.00 | 0.00 | 0.00 | 88 | 1013.7 |
| 20260504185424 | 58 | 0 | 0.0 | 0.0 | 0.00 | 0.00 | 0.00 | 87 | 1013.7 |
| 20260504184503 | 58 | 321 | 0.0 | 3.0 | 0.00 | 0.00 | 0.00 | 86 | 1013.6 |
| 20260504183624 | 58 | 0 | 0.0 | 0.0 | 0.00 | 0.00 | 0.00 | 86 | 1013.6 |
| 20260504182703 | 59 | 340 | 0.0 | 2.0 | 0.00 | 0.00 | 0.00 | 85 | 1013.7 |
| 20260504181824 | 59 | 332 | 0.0 | 5.0 | 0.00 | 0.00 | 0.00 | 85 | 1013.7 |
| 20260504180903 | 59 | 0 | 0.0 | 0.0 | 0.00 | 0.00 | 0.00 | 85 | 1013.6 |
| 20260504180003 | 59 | 0 | 0.0 | 0.0 | 0.00 | 0.00 | 0.00 | 84 | 1013.7 |
| 20260504175403 | 59 | 0 | 0.0 | 0.0 | 0.00 | 0.00 | 0.00 | 85 | 1013.7 |
| 20260504174503 | 59 | 0 | 0.0 | 0.0 | 0.00 | 0.00 | 0.00 | 84 | 1013.6 |
| 20260504173624 | 60 | 0 | 0.0 | 0.0 | 0.00 | 0.00 | 0.00 | 84 | 1013.8 |
| 20260504172724 | 60 | 0 | 0.0 | 0.0 | 0.00 | 0.00 | 0.00 | 84 | 1013.6 |
| 20260504171803 | 60 | 0 | 0.0 | 0.0 | 0.00 | 0.00 | 0.00 | 83 | 1013.6 |
| 20260504170903 | 60 | 0 | 0.0 | 0.0 | 0.00 | 0.00 | 0.00 | 82 | 1013.6 |
| 20260504150903 | 60 | 113 | 3.0 | 9.0 | 0.00 | 0.00 | 0.00 | 84 | 1014.1 |
| 20260504140903 | 64 | 80 | 0.0 | 7.0 | 0.00 | 0.00 | 0.00 | 69 | 1013.9 |